"Period start","avg(HW err(1)/warn(2) (#))","avg(Visibility (m))","avg(Weather code (#))","avg(Precip intensity (mm/h))","min(HW err(1)/warn(2) (#))","max(HW err(1)/warn(2) (#))","std(HW err(1)/warn(2) (#))","med(HW err(1)/warn(2) (#))","min(Visibility (m))","max(Visibility (m))","std(Visibility (m))","med(Visibility (m))","min(Weather code (#))","max(Weather code (#))","std(Weather code (#))","med(Weather code (#))","min(Precip intensity (mm/h))","max(Precip intensity (mm/h))","std(Precip intensity (mm/h))","med(Precip intensity (mm/h))"
2014-07-06 00:00:00,0,42131,0,0.00,0,0,0,0,34176,49946,5302,41129,0,0,0,0,0.00,0.00,0.00,0.00
2014-07-06 00:10:00,0,48091,0,0.00,0,0,0,0,41355,50000,2982,50000,0,0,0,0,0.00,0.00,0.00,0.00
2014-07-06 00:20:00,0,43989,0,0.00,0,0,0,0,26023,50000,7237,46008,0,0,0,0,0.00,0.00,0.00,0.00
2014-07-06 00:30:00,0,40494,0,0.00,0,0,0,0,31643,50000,6419,39836,0,0,0,0,0.00,0.00,0.00,0.00
2014-07-06 00:40:00,0,46399,0,0.00,0,0,0,0,39257,50000,3943,47858,0,0,0,0,0.00,0.00,0.00,0.00
2014-07-06 00:50:00,0,47451,0,0.00,0,0,0,0,41833,50000,3199,49474,0,0,0,0,0.00,0.00,0.00,0.00
2014-07-06 01:00:00,0,41677,0,0.00,0,0,0,0,28710,50000,7790,42385,0,0,0,0,0.00,0.00,0.00,0.00
2014-07-06 01:10:00,0,45086,0,0.00,0,0,0,0,37125,50000,4743,46738,0,0,0,0,0.00,0.00,0.00,0.00
2014-07-06 01:20:00,0,46668,0,0.00,0,0,0,0,36706,50000,4452,49286,0,0,0,0,0.00,0.00,0.00,0.00
2014-07-06 01:30:00,0,46398,0,0.00,0,0,0,0,37518,50000,4309,48282,0,0,0,0,0.00,0.00,0.00,0.00
2014-07-06 01:40:00,0,40976,0,0.00,0,0,0,0,26940,50000,6878,43329,0,0,0,0,0.00,0.00,0.00,0.00
2014-07-06 01:50:00,0,41588,0,0.00,0,0,0,0,28783,50000,7801,44226,0,0,0,0,0.00,0.00,0.00,0.00
2014-07-06 02:00:00,0,41663,0,0.00,0,0,0,0,25979,50000,8231,43584,0,0,0,0,0.00,0.00,0.00,0.00
2014-07-06 02:10:00,0,43617,0,0.00,0,0,0,0,27915,50000,7663,47052,0,0,0,0,0.00,0.00,0.00,0.00
2014-07-06 02:20:00,0,37988,0,0.00,0,0,0,0,25548,48718,7697,38256,0,0,0,0,0.00,0.00,0.00,0.00
2014-07-06 02:30:00,0,37678,0,0.00,0,0,0,0,17689,50000,11108,39759,0,0,0,0,0.00,0.00,0.00,0.00
2014-07-06 02:40:00,0,42215,0,0.00,0,0,0,0,23449,50000,7611,45446,0,0,0,0,0.00,0.00,0.00,0.00
2014-07-06 02:50:00,0,45641,0,0.00,0,0,0,0,36712,50000,4133,46788,0,0,0,0,0.00,0.00,0.00,0.00
2014-07-06 03:00:00,0,43285,0,0.00,0,0,0,0,29899,50000,7301,47490,0,0,0,0,0.00,0.00,0.00,0.00
2014-07-06 03:10:00,0,41000,0,0.00,0,0,0,0,25797,50000,8156,41065,0,0,0,0,0.00,0.00,0.00,0.00
2014-07-06 03:20:00,0,49010,0,0.00,0,0,0,0,45303,50000,1406,49673,0,0,0,0,0.00,0.00,0.00,0.00
2014-07-06 03:30:00,0,45581,0,0.00,0,0,0,0,38624,50000,4104,47393,0,0,0,0,0.00,0.00,0.00,0.00
2014-07-06 03:40:00,0,45111,0,0.00,0,0,0,0,30885,50000,5700,46707,0,0,0,0,0.00,0.00,0.00,0.00
2014-07-06 03:50:00,0,46207,0,0.00,0,0,0,0,36703,50000,4268,47834,0,0,0,0,0.00,0.00,0.00,0.00
2014-07-06 04:00:00,0,49005,0,0.00,0,0,0,0,45834,50000,1641,50000,0,0,0,0,0.00,0.00,0.00,0.00
2014-07-06 04:10:00,0,47632,0,0.00,0,0,0,0,41790,50000,2689,48664,0,0,0,0,0.00,0.00,0.00,0.00
2014-07-06 04:20:00,0,49119,0,0.00,0,0,0,0,42072,50000,2364,50000,0,0,0,0,0.00,0.00,0.00,0.00
2014-07-06 04:30:00,0,49275,0,0.00,0,0,0,0,45600,50000,1341,49976,0,0,0,0,0.00,0.00,0.00,0.00
2014-07-06 04:40:00,0,48837,0,0.00,0,0,0,0,42736,50000,2209,50000,0,0,0,0,0.00,0.00,0.00,0.00
2014-07-06 04:50:00,0,48923,0,0.00,0,0,0,0,46348,50000,1365,49910,0,0,0,0,0.00,0.00,0.00,0.00
2014-07-06 05:00:00,0,47029,0,0.00,0,0,0,0,38068,50000,3846,48638,0,0,0,0,0.00,0.00,0.00,0.00
2014-07-06 05:10:00,0,49106,0,0.00,0,0,0,0,45981,50000,1234,49781,0,0,0,0,0.00,0.00,0.00,0.00
2014-07-06 05:20:00,0,48541,0,0.00,0,0,0,0,45449,50000,1661,49293,0,0,0,0,0.00,0.00,0.00,0.00
2014-07-06 05:30:00,0,49544,0,0.00,0,0,0,0,47713,50000,911,50000,0,0,0,0,0.00,0.00,0.00,0.00
2014-07-06 05:40:00,0,45324,0,0.00,0,0,0,0,35105,50000,4797,46878,0,0,0,0,0.00,0.00,0.00,0.00
2014-07-06 05:50:00,0,47491,0,0.00,0,0,0,0,39314,50000,3415,49306,0,0,0,0,0.00,0.00,0.00,0.00
2014-07-06 06:00:00,0,49959,0,0.00,0,0,0,0,49777,50000,83,50000,0,0,0,0,0.00,0.00,0.00,0.00
2014-07-06 06:10:00,0,49100,0,0.00,0,0,0,0,47286,50000,1110,49847,0,0,0,0,0.00,0.00,0.00,0.00
2014-07-06 06:20:00,0,46593,0,0.00,0,0,0,0,40784,50000,3459,47596,0,0,0,0,0.00,0.00,0.00,0.00
2014-07-06 06:30:00,0,47783,0,0.00,0,0,0,0,41314,50000,3213,50000,0,0,0,0,0.00,0.00,0.00,0.00
2014-07-06 06:40:00,0,48572,0,0.00,0,0,0,0,42958,50000,2521,50000,0,0,0,0,0.00,0.00,0.00,0.00
2014-07-06 06:50:00,0,49171,0,0.00,0,0,0,0,46993,50000,1221,50000,0,0,0,0,0.00,0.00,0.00,0.00
2014-07-06 07:00:00,0,44421,0,0.00,0,0,0,0,36962,50000,4264,45600,0,0,0,0,0.00,0.00,0.00,0.00
2014-07-06 07:10:00,0,47094,0,0.00,0,0,0,0,37131,50000,4575,49612,0,0,0,0,0.00,0.00,0.00,0.00
2014-07-06 07:20:00,0,48765,0,0.00,0,0,0,0,46386,50000,1440,49618,0,0,0,0,0.00,0.00,0.00,0.00
2014-07-06 07:30:00,0,48398,0,0.00,0,0,0,0,45145,50000,1715,48766,0,0,0,0,0.00,0.00,0.00,0.00
2014-07-06 07:40:00,0,46861,0,0.00,0,0,0,0,41633,50000,3141,47115,0,0,0,0,0.00,0.00,0.00,0.00
2014-07-06 07:50:00,0,49236,0,0.00,0,0,0,0,44001,50000,1812,50000,0,0,0,0,0.00,0.00,0.00,0.00
2014-07-06 08:00:00,0,38172,0,0.00,0,0,0,0,26264,48814,5511,38154,0,0,0,0,0.00,0.00,0.00,0.00
2014-07-06 08:10:00,0,29592,0,0.00,0,0,0,0,13743,50000,11814,27578,0,0,0,0,0.00,0.00,0.00,0.00
2014-07-06 08:20:00,0,37876,0,0.00,0,0,0,0,26380,48112,7380,38688,0,0,0,0,0.00,0.00,0.00,0.00
2014-07-06 08:30:00,0,37303,0,0.00,0,0,0,0,30000,43193,5254,39020,0,0,0,0,0.00,0.00,0.00,0.00
2014-07-06 08:40:00,0,36900,0,0.00,0,0,0,0,29796,41594,3934,37364,0,0,0,0,0.00,0.00,0.00,0.00
2014-07-06 08:50:00,0,42953,0,0.00,0,0,0,0,33289,48243,5085,44252,0,0,0,0,0.00,0.00,0.00,0.00
2014-07-06 09:00:00,0,48734,0,0.00,0,0,0,0,44377,50000,1668,49379,0,0,0,0,0.00,0.00,0.00,0.00
2014-07-06 09:10:00,0,47992,0,0.00,0,0,0,0,42955,50000,2383,49250,0,0,0,0,0.00,0.00,0.00,0.00
2014-07-06 09:20:00,0,49768,0,0.00,0,0,0,0,48050,50000,583,50000,0,0,0,0,0.00,0.00,0.00,0.00
2014-07-06 09:30:00,0,45523,0,0.00,0,0,0,0,39025,50000,3694,45991,0,0,0,0,0.00,0.00,0.00,0.00
2014-07-06 09:40:00,0,47415,0,0.00,0,0,0,0,39978,50000,2996,48398,0,0,0,0,0.00,0.00,0.00,0.00
2014-07-06 09:50:00,0,48443,0,0.00,0,0,0,0,44513,50000,2040,49939,0,0,0,0,0.00,0.00,0.00,0.00
2014-07-06 10:00:00,0,49404,0,0.00,0,0,0,0,44934,50000,1503,50000,0,0,0,0,0.00,0.00,0.00,0.00
2014-07-06 10:10:00,0,50000,0,0.00,0,0,0,0,50000,50000,0,50000,0,0,0,0,0.00,0.00,0.00,0.00
2014-07-06 10:20:00,0,49793,0,0.00,0,0,0,0,47927,50000,622,50000,0,0,0,0,0.00,0.00,0.00,0.00
2014-07-06 10:30:00,0,49082,0,0.00,0,0,0,0,45136,50000,1730,50000,0,0,0,0,0.00,0.00,0.00,0.00
2014-07-06 10:40:00,0,49743,0,0.00,0,0,0,0,48472,50000,526,50000,0,0,0,0,0.00,0.00,0.00,0.00
2014-07-06 10:50:00,0,49381,0,0.00,0,0,0,0,47146,50000,931,50000,0,0,0,0,0.00,0.00,0.00,0.00
2014-07-06 11:00:00,0,49914,0,0.00,0,0,0,0,49140,50000,258,50000,0,0,0,0,0.00,0.00,0.00,0.00
2014-07-06 11:10:00,0,50000,0,0.00,0,0,0,0,50000,50000,0,50000,0,0,0,0,0.00,0.00,0.00,0.00
2014-07-06 11:20:00,0,49547,0,0.00,0,0,0,0,47356,50000,820,50000,0,0,0,0,0.00,0.00,0.00,0.00
2014-07-06 11:30:00,0,49218,0,0.00,0,0,0,0,46542,50000,1321,50000,0,0,0,0,0.00,0.00,0.00,0.00
2014-07-06 11:40:00,0,50000,0,0.00,0,0,0,0,50000,50000,0,50000,0,0,0,0,0.00,0.00,0.00,0.00
2014-07-06 11:50:00,0,49844,0,0.00,0,0,0,0,48442,50000,467,50000,0,0,0,0,0.00,0.00,0.00,0.00
2014-07-06 12:00:00,0,49930,0,0.00,0,0,0,0,49305,50000,208,50000,0,0,0,0,0.00,0.00,0.00,0.00
2014-07-06 12:10:00,0,50000,0,0.00,0,0,0,0,50000,50000,0,50000,0,0,0,0,0.00,0.00,0.00,0.00
2014-07-06 12:20:00,0,49528,0,0.00,0,0,0,0,46677,50000,1029,50000,0,0,0,0,0.00,0.00,0.00,0.00
2014-07-06 12:30:00,0,50000,0,0.00,0,0,0,0,50000,50000,0,50000,0,0,0,0,0.00,0.00,0.00,0.00
2014-07-06 12:40:00,0,50000,0,0.00,0,0,0,0,50000,50000,0,50000,0,0,0,0,0.00,0.00,0.00,0.00
2014-07-06 12:50:00,0,50000,0,0.00,0,0,0,0,50000,50000,0,50000,0,0,0,0,0.00,0.00,0.00,0.00
2014-07-06 13:00:00,0,49571,0,0.00,0,0,0,0,45708,50000,1288,50000,0,0,0,0,0.00,0.00,0.00,0.00
2014-07-06 13:10:00,0,49021,0,0.00,0,0,0,0,46466,50000,1303,50000,0,0,0,0,0.00,0.00,0.00,0.00
2014-07-06 13:20:00,0,50000,0,0.00,0,0,0,0,50000,50000,0,50000,0,0,0,0,0.00,0.00,0.00,0.00
2014-07-06 13:30:00,0,50000,0,0.00,0,0,0,0,50000,50000,0,50000,0,0,0,0,0.00,0.00,0.00,0.00
2014-07-06 13:40:00,0,50000,0,0.00,0,0,0,0,50000,50000,0,50000,0,0,0,0,0.00,0.00,0.00,0.00
2014-07-06 13:50:00,0,50000,0,0.00,0,0,0,0,50000,50000,0,50000,0,0,0,0,0.00,0.00,0.00,0.00
2014-07-06 14:00:00,0,50000,0,0.00,0,0,0,0,50000,50000,0,50000,0,0,0,0,0.00,0.00,0.00,0.00
2014-07-06 14:10:00,0,50000,0,0.00,0,0,0,0,50000,50000,0,50000,0,0,0,0,0.00,0.00,0.00,0.00
2014-07-06 14:20:00,0,49997,0,0.00,0,0,0,0,49972,50000,8,50000,0,0,0,0,0.00,0.00,0.00,0.00
2014-07-06 14:30:00,0,50000,0,0.00,0,0,0,0,50000,50000,0,50000,0,0,0,0,0.00,0.00,0.00,0.00
2014-07-06 14:40:00,0,50000,0,0.00,0,0,0,0,50000,50000,0,50000,0,0,0,0,0.00,0.00,0.00,0.00
2014-07-06 14:50:00,0,50000,0,0.00,0,0,0,0,50000,50000,0,50000,0,0,0,0,0.00,0.00,0.00,0.00
2014-07-06 15:00:00,0,49973,0,0.00,0,0,0,0,49734,50000,80,50000,0,0,0,0,0.00,0.00,0.00,0.00
2014-07-06 15:10:00,0,50000,0,0.00,0,0,0,0,50000,50000,0,50000,0,0,0,0,0.00,0.00,0.00,0.00
2014-07-06 15:20:00,0,50000,0,0.00,0,0,0,0,50000,50000,0,50000,0,0,0,0,0.00,0.00,0.00,0.00
2014-07-06 15:30:00,0,50000,0,0.00,0,0,0,0,50000,50000,0,50000,0,0,0,0,0.00,0.00,0.00,0.00
2014-07-06 15:40:00,0,50000,0,0.00,0,0,0,0,50000,50000,0,50000,0,0,0,0,0.00,0.00,0.00,0.00
2014-07-06 15:50:00,0,50000,0,0.00,0,0,0,0,50000,50000,0,50000,0,0,0,0,0.00,0.00,0.00,0.00
2014-07-06 16:00:00,0,50000,0,0.00,0,0,0,0,50000,50000,0,50000,0,0,0,0,0.00,0.00,0.00,0.00
2014-07-06 16:10:00,0,50000,0,0.00,0,0,0,0,50000,50000,0,50000,0,0,0,0,0.00,0.00,0.00,0.00
2014-07-06 16:20:00,0,50000,0,0.00,0,0,0,0,50000,50000,0,50000,0,0,0,0,0.00,0.00,0.00,0.00
2014-07-06 16:30:00,0,50000,0,0.00,0,0,0,0,50000,50000,0,50000,0,0,0,0,0.00,0.00,0.00,0.00
2014-07-06 16:40:00,0,50000,0,0.00,0,0,0,0,50000,50000,0,50000,0,0,0,0,0.00,0.00,0.00,0.00
2014-07-06 16:50:00,0,50000,0,0.00,0,0,0,0,50000,50000,0,50000,0,0,0,0,0.00,0.00,0.00,0.00
2014-07-06 17:00:00,0,50000,0,0.00,0,0,0,0,50000,50000,0,50000,0,0,0,0,0.00,0.00,0.00,0.00
2014-07-06 17:10:00,0,50000,0,0.00,0,0,0,0,50000,50000,0,50000,0,0,0,0,0.00,0.00,0.00,0.00
2014-07-06 17:20:00,0,50000,0,0.00,0,0,0,0,50000,50000,0,50000,0,0,0,0,0.00,0.00,0.00,0.00
2014-07-06 17:30:00,0,50000,0,0.00,0,0,0,0,50000,50000,0,50000,0,0,0,0,0.00,0.00,0.00,0.00
2014-07-06 17:40:00,0,50000,0,0.00,0,0,0,0,50000,50000,0,50000,0,0,0,0,0.00,0.00,0.00,0.00
2014-07-06 17:50:00,0,50000,0,0.00,0,0,0,0,50000,50000,0,50000,0,0,0,0,0.00,0.00,0.00,0.00
2014-07-06 18:00:00,0,50000,0,0.00,0,0,0,0,50000,50000,0,50000,0,0,0,0,0.00,0.00,0.00,0.00
2014-07-06 18:10:00,0,50000,0,0.00,0,0,0,0,50000,50000,0,50000,0,0,0,0,0.00,0.00,0.00,0.00
2014-07-06 18:20:00,0,50000,0,0.00,0,0,0,0,50000,50000,0,50000,0,0,0,0,0.00,0.00,0.00,0.00
2014-07-06 18:30:00,0,50000,0,0.00,0,0,0,0,50000,50000,0,50000,0,0,0,0,0.00,0.00,0.00,0.00
2014-07-06 18:40:00,0,50000,0,0.00,0,0,0,0,50000,50000,0,50000,0,0,0,0,0.00,0.00,0.00,0.00
2014-07-06 18:50:00,0,50000,0,0.00,0,0,0,0,50000,50000,0,50000,0,0,0,0,0.00,0.00,0.00,0.00
2014-07-06 19:00:00,0,49886,0,0.00,0,0,0,0,48857,50000,343,50000,0,0,0,0,0.00,0.00,0.00,0.00
2014-07-06 19:10:00,0,49832,0,0.00,0,0,0,0,48941,50000,350,50000,0,0,0,0,0.00,0.00,0.00,0.00
2014-07-06 19:20:00,0,50000,0,0.00,0,0,0,0,50000,50000,0,50000,0,0,0,0,0.00,0.00,0.00,0.00
2014-07-06 19:30:00,0,50000,0,0.00,0,0,0,0,50000,50000,0,50000,0,0,0,0,0.00,0.00,0.00,0.00
2014-07-06 19:40:00,0,50000,0,0.00,0,0,0,0,50000,50000,0,50000,0,0,0,0,0.00,0.00,0.00,0.00
2014-07-06 19:50:00,0,50000,0,0.00,0,0,0,0,50000,50000,0,50000,0,0,0,0,0.00,0.00,0.00,0.00
2014-07-06 20:00:00,0,50000,0,0.00,0,0,0,0,50000,50000,0,50000,0,0,0,0,0.00,0.00,0.00,0.00
2014-07-06 20:10:00,0,49891,0,0.00,0,0,0,0,48912,50000,326,50000,0,0,0,0,0.00,0.00,0.00,0.00
2014-07-06 20:20:00,0,50000,0,0.00,0,0,0,0,50000,50000,0,50000,0,0,0,0,0.00,0.00,0.00,0.00
2014-07-06 20:30:00,0,49797,0,0.00,0,0,0,0,47966,50000,610,50000,0,0,0,0,0.00,0.00,0.00,0.00
2014-07-06 20:40:00,0,49867,0,0.00,0,0,0,0,49454,50000,212,50000,0,0,0,0,0.00,0.00,0.00,0.00
2014-07-06 20:50:00,0,49244,0,0.00,0,2,1,0,45333,50000,1443,50000,0,0,0,0,0.00,0.00,0.00,0.00
2014-07-06 21:00:00,0,49895,0,0.00,0,0,0,0,49170,50000,250,50000,0,0,0,0,0.00,0.00,0.00,0.00
2014-07-06 21:10:00,0,50000,0,0.00,0,0,0,0,50000,50000,0,50000,0,0,0,0,0.00,0.00,0.00,0.00
2014-07-06 21:20:00,0,50000,0,0.00,0,0,0,0,50000,50000,0,50000,0,0,0,0,0.00,0.00,0.00,0.00
2014-07-06 21:30:00,0,49415,0,0.00,0,0,0,0,44748,50000,1566,50000,0,0,0,0,0.00,0.00,0.00,0.00
2014-07-06 21:40:00,0,49873,0,0.00,0,0,0,0,48730,50000,381,50000,0,0,0,0,0.00,0.00,0.00,0.00
2014-07-06 21:50:00,0,50000,0,0.00,0,0,0,0,50000,50000,0,50000,0,0,0,0,0.00,0.00,0.00,0.00
2014-07-06 22:00:00,0,49996,0,0.00,0,0,0,0,49964,50000,11,50000,0,0,0,0,0.00,0.00,0.00,0.00
2014-07-06 22:10:00,0,49854,28,0.06,0,0,0,0,48882,50000,339,50000,0,61,28,26,0.00,0.20,0.07,0.03
2014-07-06 22:20:00,0,48365,43,0.05,0,0,0,0,44222,50000,1998,49246,0,61,22,51,0.00,0.20,0.06,0.03
2014-07-06 22:30:00,0,46932,12,0.21,0,0,0,0,33182,50000,5893,50000,0,61,24,0,0.00,1.55,0.48,0.00
2014-07-06 22:40:00,0,49914,54,0.34,0,0,0,0,49306,50000,209,50000,51,61,5,51,0.00,0.95,0.34,0.23
2014-07-06 22:50:00,0,49925,0,0.00,0,0,0,0,49252,50000,224,50000,0,0,0,0,0.00,0.00,0.00,0.00
2014-07-06 23:00:00,0,49807,0,0.00,0,0,0,0,48069,50000,579,50000,0,0,0,0,0.00,0.00,0.00,0.00
2014-07-06 23:10:00,0,50000,0,0.00,0,0,0,0,50000,50000,0,50000,0,0,0,0,0.00,0.00,0.00,0.00
2014-07-06 23:20:00,0,49926,0,0.00,0,0,0,0,49259,50000,222,50000,0,0,0,0,0.00,0.00,0.00,0.00
2014-07-06 23:30:00,0,50000,37,0.03,0,0,0,0,49999,50000,0,50000,0,61,30,61,0.00,0.15,0.06,0.00
2014-07-06 23:40:00,0,49759,43,0.09,0,0,0,0,48863,50000,413,50000,0,61,22,51,0.00,0.40,0.13,0.03
2014-07-06 23:50:00,0,49066,5,0.00,0,0,0,0,44710,50000,1742,50000,0,51,15,0,0.00,0.00,0.00,0.00
